Regional Weather Roundup
Issued by NWS

Home | Current Version | Previous Version | Text Only | Print | Product List | Glossary Off
Versions: 1 2 3 4 5 6 7 8 9 10 11 12 13 14 15 16 17 18 19 20 21 22 23 24 25 26 27 28 29 30 31 32 33 34 35 36 37 38 39 40 41 42 43 44 45 46 47 48 49 50

000
ASUS43 KBIS 210410
RWRND

NORTH DAKOTA REGIONAL WEATHER ROUNDUP
NATIONAL WEATHER SERVICE BISMARCK ND
1000 PM CST FRI JAN 20 2017

NOTE: "FAIR" INDICATES FEW OR NO CLOUDS BELOW 12,000 FEET WITH NO
SIGNIFICANT WEATHER AND/OR OBSTRUCTIONS TO VISIBILITY.


NDZ001>003-009>011-017-210500-
NORTHWEST NORTH DAKOTA

CITY           SKY/WX    TMP DP  RH WIND       PRES   REMARKS
WILLISTON      FAIR      26  23  88 SE3       29.32S
MINOT          CLOUDY    28  27  96 S5        29.33F FOG
MINOT AFB      CLOUDY    25  25 100 CALM      29.32F
$$

NDZ018>021-031>035-040>046-210500-
SOUTHWEST NORTH DAKOTA

CITY           SKY/WX    TMP DP  RH WIND       PRES   REMARKS
BISMARCK       CLOUDY    31  30  96 W3        29.34R FOG
DICKINSON      FAIR      23  21  92 W9        29.29S WCI  13
GARRISON         N/A     24  23  96 W6        29.32F WCI  17
HETTINGER ARPT CLOUDY    28  24  85 NW13      29.31F WCI  17
$$

NDZ004>008-012>016-024-026-027-054-210500-
NORTHEAST NORTH DAKOTA

CITY           SKY/WX    TMP DP  RH WIND       PRES   REMARKS
GRAND FORKS    CLOUDY    36  33  89 SE10      29.44S FOG
GRND FRKS AFB  CLOUDY    34  34  99 SE9       29.43S
DEVILS LAKE    FOG       33  32  96 SE7       29.38F VSB 1/2
$$

NDZ022-023-025-028>030-036>039-047>053-210500-
SOUTHEAST NORTH DAKOTA

CITY           SKY/WX    TMP DP  RH WIND       PRES   REMARKS
FARGO          CLOUDY    39  35  86 SE12      29.42F
JAMESTOWN      FOG       33  33 100 SE12      29.34F VSB 1/4
$$





USA.gov is the U.S. government's official web portal to all federal, state and local government web resources and services.